Orbital Elements at Epoch 2459000.5 (2020-May-31.0) TDB
Reference: JPL 15 (heliocentric ecliptic J2000)
Element | Value | Uncertainty (1-sigma) | Units |
e | .1189479878213609 | 4.1003e-08 | |
a | 2.403112383634183 | 2.536e-08 | au |
q | 2.117267001092303 | 1.0679e-07 | au |
i | 4.515234308280847 | 4.6701e-06 | deg |
node | 81.64656892841775 | 8.7075e-05 | deg |
peri | 175.5096287690587 | 9.3375e-05 | deg |
M | 252.3197589519636 | 3.7782e-05 | deg |
tp | 2459407.498742442432 (2021-Jul-11.99874244) | 0.00014637 | TDB |
period | 1360.691115224314 3.73 | 2.1539e-05 5.897e-08 | d yr |
n | .2645714343042895 | 4.188e-09 | deg/d |
Q | 2.688957766176063 | 2.8376e-08 | au |
|
| | Orbit Determination Parameters
Additional Information
|